Weather History for Juliana Airport, St. Martin

Change the Weather History Date:

Monday, February 10, 2014

  Actual Average Record
Temperature  
Mean Temperature 79 °F -  
Max Temperature 82 °F 81 °F 84 °F (2000)
Min Temperature 76 °F 72 °F 69 °F (2005)
Cooling Degree Days 14    
Growing Degree Days 29 (Base 50)    
Moisture  
Dew Point 69 °F    
Average Humidity 69    
Maximum Humidity 78    
Minimum Humidity 54    
Precipitation  
Precipitation 0.00 in 0.06 in - ()
Sea Level Pressure  
Sea Level Pressure 30.02 in    
Wind  
Wind Speed 9 mph ()    
Max Wind Speed 14 mph    
Max Gust Speed -    
Visibility 7.4 miles    
Events      
Averages and records for this station are not official NWS values.
T = Trace of Precipitation, MM = Missing Value Source: Averaged Metar Reports

Daily Weather History Graph

Daily Weather History Graph

Search for Another Location

Airport:

Trip Planner

Search our weather history database for the weather conditions in past years. The results will help you decide how hot, cold, wet, or windy it might be!

Date:

Astronomy

Feb. 10, 2014 Rise Set
Actual Time 6:42 AM AST 6:11 PM AST
Civil Twilight 6:19 AM AST 6:33 PM AST
Nautical Twilight 5:53 AM AST 6:59 PM AST
Astronomical Twilight 5:28 AM AST 7:25 PM AST
Moon 2:49 PM AST (2/10) 3:18 AM AST (2/10)
Length of Visible Light 12h 14m
Length of Day
11h 29m
Waxing Gibbous, 84% of the Moon is Illuminated
Feb 10
Waxing Gibbous
Feb 14
Full
Feb 22
Last Quarter
Mar 1
New
Mar 8
First Quarter

Hourly Weather History & Observations

Time (AST) Temp. Heat Index Dew Point Humidity Pressure Visibility Wind Dir Wind Speed Gust Speed Precip Events Conditions
12:00 AM 78.8 °F - 69.8 °F 74% 30.01 in 6.2 mi East 9.2 mph - N/A   Mostly Cloudy
1:00 AM 78.8 °F - 69.8 °F 74% 30.01 in 6.2 mi East 11.5 mph - N/A   Scattered Clouds
2:00 AM 78 °F - 69 °F 68% 30.01 in 12 mi East 11.5 mph - -   Partly Cloudy
2:00 AM 77.0 °F - 69.8 °F 78% 30.01 in 6.2 mi East 10.4 mph - N/A   Partly Cloudy
4:00 AM 77.0 °F - 69.8 °F 78% 29.98 in 6.2 mi East 5.8 mph - N/A   Mostly Cloudy
5:00 AM 77 °F - 70 °F 72% 30.00 in 16 mi ESE 6.9 mph - -   Partly Cloudy
5:00 AM 77.0 °F - 69.8 °F 78% 29.98 in 6.2 mi ESE 8.1 mph - N/A   Mostly Cloudy
6:00 AM 77.0 °F - 68.0 °F 74% 30.01 in 6.2 mi ESE 8.1 mph - N/A   Partly Cloudy
7:00 AM 77.0 °F - 69.8 °F 78% 30.01 in 6.2 mi ESE 9.2 mph - N/A   Partly Cloudy
8:00 AM 78 °F - 70 °F 69% 30.05 in 16 mi ESE 6.9 mph - -   Partly Cloudy
8:00 AM 78.8 °F - 69.8 °F 74% 30.04 in 6.2 mi ESE 8.1 mph - N/A   Partly Cloudy
9:00 AM 80.6 °F 83.9 °F 69.8 °F 70% 30.06 in 6.2 mi ESE 9.2 mph - N/A   Partly Cloudy
10:00 AM 80.6 °F 83.9 °F 69.8 °F 70% 30.06 in 6.2 mi ESE 11.5 mph - N/A   Partly Cloudy
11:00 AM 82 °F - 68 °F 54% 30.07 in 22 mi SE 11.5 mph - -   Partly Cloudy
11:00 AM 82.4 °F 85.4 °F 68.0 °F 62% 30.06 in 6.2 mi SE 11.5 mph - N/A   Partly Cloudy
12:00 PM 80.6 °F 83.9 °F 69.8 °F 70% 30.04 in 6.2 mi ESE 12.7 mph - N/A   Scattered Clouds
1:00 PM 82.4 °F 85.4 °F 68.0 °F 62% 30.01 in 6.2 mi ESE 12.7 mph - N/A   Scattered Clouds
2:00 PM 82 °F - 68 °F 55% 30.00 in 25 mi ESE 11.5 mph - -  
2:00 PM 80.6 °F 83.9 °F 69.8 °F 70% 29.98 in - ESE 11.5 mph - N/A   Scattered Clouds
3:00 PM 82.4 °F 85.4 °F 68.0 °F 62% 29.98 in 6.2 mi East 11.5 mph - N/A   Partly Cloudy
4:00 PM 80.6 °F 83.2 °F 68.0 °F 65% 29.98 in 6.2 mi East 12.7 mph - N/A   Partly Cloudy
5:00 PM 80 °F - 69 °F 61% 29.99 in 25 mi East 10.4 mph - -   Scattered Clouds
5:00 PM 80.6 °F 83.2 °F 68.0 °F 65% 29.98 in 6.2 mi East 10.4 mph - N/A   Partly Cloudy
6:00 PM 78.8 °F - 68.0 °F 69% 29.98 in 6.2 mi East 10.4 mph - N/A   Partly Cloudy
7:00 PM 78.8 °F - 68.0 °F 69% 30.01 in 6.2 mi East 10.4 mph - N/A   Partly Cloudy
8:00 PM 78 °F - 69 °F 66% 30.04 in 25 mi East 11.5 mph - -  
8:00 PM 77.0 °F - 68.0 °F 74% 30.04 in 6.2 mi East 11.5 mph - N/A   Partly Cloudy
9:00 PM 78.8 °F - 68.0 °F 69% 30.04 in 6.2 mi East 10.4 mph - N/A   Partly Cloudy
10:00 PM 78.8 °F - 69.8 °F 74% 30.04 in 6.2 mi ESE 13.8 mph - N/A   Scattered Clouds
11:00 PM 78 °F - 69 °F 67% 30.06 in 12 mi ESE 10.4 mph - -   Mostly Cloudy
11:00 PM 77.0 °F - 69.8 °F 78% 30.04 in 6.2 mi ESE 10.4 mph - N/A   Scattered Clouds